Location: Alafon
(8.4500°N, 4.2333°E)
Time: 00:31:57
(UTC+00:00)

Explorer 7 - Pass Details

Date: 02 August 2021
Orbit: 484 x 676 km, 50.3° (Epoch: 22 September)

Event Time Altitude Azimuth Distance (km) Brightness Sun altitude
Rises 01:50:00 0° 222° (SW) 2,588 - -50.3°
Reaches altitude 10° 01:52:13 10° 224° (SW) 1,685 - -49.9°
Maximum altitude 01:55:59 67° 308° (NW) 526 - -49.2°
Drops below altitude 10° 01:59:40 10° 31° (NNE) 1,651 - -48.5°
Sets 02:01:50 0° 34° (NNE) 2,531 - -48.1°
